EW3230 Weather Reports


Display with metric or nautical units.
time (UTC)temp
F
wind
direction
speed
MPH
gust
MPH
rain 1hr
in
rain 24hr
in
rain mn
in
humidity
%
barometer
mb
20260504045040 40 278 0.0 1.0 0.00 0.04 0.00 75 1011.3
20260504044039 39 281 0.0 0.0 0.00 0.04 0.00 76 1011.5
20260504043540 39 287 0.0 0.0 0.00 0.04 0.00 78 1011.4
20260504042045 39 288 0.0 0.0 0.00 0.04 0.00 78 1011.4
20260504042039 39 288 0.0 0.0 0.00 0.04 0.00 77 1011.4
20260504040054 38 288 0.0 0.0 0.00 0.05 0.00 78 1011.2
20260504035039 38 288 0.0 0.0 0.00 0.05 0.05 78 1011.1
20260504034038 38 288 0.0 0.0 0.00 0.06 0.05 78 1011.1
20260504033036 39 288 0.0 0.0 0.00 0.06 0.05 78 1011.0
20260504032036 39 288 0.0 0.0 0.00 0.07 0.05 77 1011.0
20260504031037 39 288 0.0 0.0 0.00 0.07 0.05 77 1011.0
20260504030032 39 287 0.0 0.0 0.00 0.07 0.05 76 1011.0
20260504025535 40 288 0.0 0.0 0.00 0.08 0.05 76 1011.0
20260504024033 40 286 0.0 0.0 0.00 0.08 0.05 75 1011.0
20260504023534 40 286 0.0 0.0 0.00 0.08 0.05 75 1010.9
20260504022033 41 287 0.0 0.0 0.00 0.09 0.05 75 1011.0
20260504021033 41 287 0.0 0.0 0.00 0.09 0.05 74 1010.9
20260504020031 42 287 0.0 0.0 0.00 0.09 0.05 71 1010.7
20260504015533 42 286 0.0 0.0 0.00 0.11 0.05 69 1010.7
20260504014030 43 286 0.0 0.0 0.00 0.12 0.05 68 1010.6
20260504013528 43 286 0.0 0.0 0.00 0.14 0.05 67 1010.5
20260504012029 44 287 0.0 0.0 0.00 0.14 0.05 62 1010.4
20260504011024 45 287 0.0 0.0 0.00 0.15 0.05 59 1010.3
20260504010027 46 287 0.0 0.0 0.00 0.15 0.05 58 1010.2
20260504005026 47 287 0.0 0.0 0.00 0.16 0.05 56 1010.0
20260504004025 48 286 0.0 0.0 0.00 0.18 0.05 53 1009.9
20260504003024 49 287 0.0 2.0 0.00 0.19 0.05 51 1009.7
20260504002026 50 276 0.0 1.0 0.00 0.21 0.05 46 1009.5
20260504001027 51 250 1.0 9.0 0.00 0.22 0.05 45 1009.4
20260504000019 51 283 0.0 3.0 0.00 0.23 0.05 45 1009.3
20260503235521 51 250 0.0 7.0 0.00 0.24 0.05 44 1009.2
20260503234020 52 312 1.0 4.0 0.00 0.25 0.05 43 1009.0
20260503233521 52 281 0.0 3.0 0.00 0.25 0.05 43 1008.8
20260503232019 53 301 1.0 7.0 0.00 0.26 0.05 42 1008.5
20260503231034 53 359 1.0 7.0 0.00 0.27 0.05 43 1008.3
20260503231026 53 53 2.0 7.0 0.00 0.27 0.05 42 1008.4
20260503225021 53 311 3.0 9.0 0.00 0.27 0.05 42 1008.0
20260503224019 54 300 2.0 9.0 0.00 0.27 0.05 43 1007.8
20260503223014 54 305 2.0 11.0 0.00 0.27 0.05 42 1007.6
20260503222014 54 273 2.0 7.0 0.00 0.27 0.05 42 1007.6
20260503221017 54 283 2.0 10.0 0.00 0.27 0.05 41 1007.3
20260503220016 55 300 2.0 8.0 0.00 0.27 0.05 41 1007.2
20260503215015 55 359 2.0 11.0 0.00 0.27 0.05 41 1007.0
20260503214013 55 226 1.0 8.0 0.00 0.27 0.05 44 1007.0
20260503213014 54 197 2.0 11.0 0.00 0.27 0.05 43 1006.8
20260503212015 55 319 3.0 15.0 0.00 0.27 0.05 42 1006.7
20260503211515 55 255 1.0 7.0 0.00 0.27 0.05 42 1006.5
20260503210011 55 337 2.0 9.0 0.00 0.27 0.05 45 1006.4
20260503205011 55 309 2.0 6.0 0.00 0.27 0.05 44 1006.4
20260503204012 55 280 2.0 10.0 0.00 0.27 0.05 46 1006.3
20260503203013 55 283 2.0 8.0 0.00 0.27 0.05 46 1006.1
20260503202010 54 295 3.0 8.0 0.00 0.27 0.05 47 1006.1
20260503201013 54 354 2.0 9.0 0.00 0.27 0.05 49 1006.1
20260503200012 54 236 1.0 6.0 0.00 0.27 0.05 50 1006.1
20260503195011 55 274 2.0 5.0 0.00 0.27 0.05 46 1005.9
20260503194010 56 316 2.0 11.0 0.00 0.27 0.05 48 1005.8
20260503193014 55 341 1.0 7.0 0.00 0.27 0.05 52 1005.9
20260503192013 53 294 2.0 8.0 0.00 0.27 0.05 53 1006.0
20260503191012 53 294 2.0 9.0 0.00 0.27 0.05 53 1006.1
20260503190513 53 308 1.0 4.0 0.00 0.27 0.05 53 1006.1
20260503185011 53 276 1.0 7.0 0.00 0.27 0.05 54 1006.1
20260503184017 52 307 1.0 6.0 0.00 0.27 0.05 56 1006.3
20260503184011 53 251 1.0 6.0 0.00 0.27 0.05 55 1006.2
20260503182010 52 43 2.0 8.0 0.00 0.27 0.05 55 1006.2
20260503181007 52 308 2.0 8.0 0.00 0.27 0.05 57 1006.2
20260503180514 52 11 3.0 13.0 0.00 0.27 0.05 58 1006.3
20260503175008 52 270 3.0 11.0 0.00 0.27 0.05 61 1006.2
20260503174007 51 328 3.0 12.0 0.00 0.27 0.05 61 1006.1
20260503173005 51 311 2.0 9.0 0.00 0.27 0.05 63 1006.2
20260503172005 52 290 3.0 10.0 0.00 0.27 0.05 62 1006.1
20260503171507 51 30 4.0 15.0 0.00 0.27 0.05 65 1005.9
20260503150953 49 298 2.0 8.0 0.00 0.27 0.05 76 1005.6
20260503130947 50 347 2.0 8.0 0.00 0.27 0.05 73 1005.3
20260503080929 45 292 0.0 1.0 0.01 0.27 0.05 73 1007.3